Location: Branche des Alpilles
(43.6087°N, 4.6976°E)
Time: 10:52:58
(UTC+00:00)

Envisat - Pass Details

Date: 06 October 2021
Orbit: 764 x 766 km, 98.2° (Epoch: 20 October)

Event Time Altitude Azimuth Distance (km) Brightness Sun altitude
Rises 03:48:36 0° 26° (NNE) 3,239 6.8 -21.7°
Reaches altitude 10° 03:51:26 10° 42° (NE) 2,308 6.2 -21.2°
Maximum altitude 03:55:21 22° 93° (E) 1,624 5.5 -20.5°
Drops below altitude 10° 03:59:14 10° 143° (SE) 2,295 5.8 -19.8°
Sets 04:02:01 0° 158° (SSE) 3,215 6.4 -19.3°
